ONEWEB-0196, 48218

Orbit data source: Space-Track

ONEWEB-0196, 48218 is a payload satellite owned by One Web (NAA) (UK) in LEO that was launched on Sun, 25 Apr 2021 UTC via a SOYUZ-2-1B launch vehicle from the Vostochny Cosmodrome (VOSTO). Payload-class satellites include a variety of spacecraft equipped with specific instruments for various scientific and technological missions. These include communications satellites like Starlink; space stations such as the ISS; scientific satellites like the Hubble; Earth observation satellites from companies like Planet Labs, Umbra, and HawkEye 360; GPS; miniature CubeSats for education and research; and military/defense satellites.

Loading next visibility...
Identifier
48218, 2021-031J
Orbit
LEO
Country
Flag of UKUK
Related business
Manufacturer
One Web
Mission
Operational Commercial Communications
Bus & Motor
ARROW, Unknown motor
Mass
148 kg wet, ~140 kg dry
Launch date (UTC)
2021-04-25 (5 years ago)
Launch vehicle
SOYUZ-2-1B
Launch site
Vostochny Cosmodrome (VOSTO)
Object type
Payload
Rocket body
Debris
Shape & HBR
Trap Box + 2 Pan, 6.7 m
Radar Cross Section
3.464 m², Large (>1 m²)

Expand to show TLE details & history
Last TLE update: 20 hours ago

TLE from 20 hours ago
0 ONEWEB-0196
1 48218U 21031J   26094.07832123 -.00000081  00000-0 -25349-3 0  9994
2 48218  87.8945 304.4992 0001720  80.9037 279.2287 13.14502425238494
Epoch: 2026-04-04T01:52Z
TLE epoch observation values (Epoch: 2026-04-04T01:52:46.954Z)
Latitude
-0.00004°
Longitude
83.9003°
Altitude
1,208.476 km
Speed
7.25 km/s
True Right ascension
20h 17m 59s
True Declination
0° 00' 00"
Sunlit
Object was in daylight at epoch
Visualization orbit readout
Latitude
Unknown
Longitude
Unknown
Altitude
Unknown
Speed
Unknown
Apparent Right ascension
Unknown
Apparent Declination
Unknown
Sunlit
N/A
Visualization observer readout
Local Sidereal Time
04:09:22
Azimuth
Unknown
Elevation
Unknown
Doppler factor
Unknown
Orbital elements
Apogee altitude
1,204.209 km
Perigee altitude
1,201.601 km
Semi-major axis
7,581.042 km
Eccentricity
0.00017
Inclination
87.8945°
RAAN
304.4992°
Arg. of periapsis
80.9037°
True anomaly
279.20924°
Mean anomaly
279.2287°
Eccentric anomaly
279.21897°
Mean motion
3.28814 °/min
Orbital period
109.48 mins
BSTAR
-0.00025349
Loading maneuver chart data...
Computing Atmospheric mass density...
Loading historical data...
Loading historical data...
Loading historical data...
Loading historical data...
Loading historical data...
Loading historical data...
Loading historical data...

Documentation

Showing up to 5 results
|